Redmond, OR

1:38 PM PST on December 09, 2019 (GMT -0800)
Roberts Field Airport

Weather History for KRDM - November, 2019

Change the Weather History Date:

Tuesday, November 19, 2019

  Actual Average Record
Temperature  
Mean Temperature 42 °F 36 °F  
Max Temperature 51 °F 47 °F 67 °F (1989)
Min Temperature 32 °F 25 °F -2 °F (1977)
Degree Days  
Heating Degree Days 23 29  
Month to date heating degree days 386 490  
Since 1 July heating degree days 1305 1435  
Cooling Degree Days 0 0  
Month to date cooling degree days 0 0  
Year to date cooling degree days 293 222  
Moisture  
Dew Point 36 °F    
Average Humidity 74    
Maximum Humidity 92    
Minimum Humidity 56    
Precipitation  
Precipitation 0.09 in 0.03 in 0.51 in (1955)
Month to date precipitation 0.09 0.59  
Year to date precipitation 9.36 7.37  
Sea Level Pressure  
Sea Level Pressure 29.79 in    
Wind  
Wind Speed 6 mph (North)    
Max Wind Speed 17 mph    
Max Gust Speed 20 mph    
Visibility 9 miles    
Events Rain    
T = Trace of Precipitation, MM = Missing Value Source: NWS Daily Summary

Daily Weather History Graph

Daily Weather History Graph

Search for Another Location

Airport or City:

Astronomy

Nov. 19, 2019 Rise Set
Actual Time 7:05 AM PST 4:34 PM PST
Civil Twilight 6:33 AM PST 5:05 PM PST
Nautical Twilight 5:58 AM PST 5:41 PM PST
Astronomical Twilight 5:23 AM PST 6:15 PM PST
Moon 11:39 PM PST (11/19) 1:17 PM PST (11/19)
Length of Visible Light 10h 32m
Length of Day
9h 28m
Waning Gibbous, 50% of the Moon is Illuminated
Nov 19
Waning Gibbous
Nov 19
Last Quarter
Nov 26
New
Dec 3
First Quarter
Dec 11
Full

Hourly Weather History & Observations

Time (PST) Temp. Windchill Dew Point Humidity Pressure Visibility Wind Dir Wind Speed Gust Speed Precip Events Conditions
12:56 AM 46.9 °F - 32.0 °F 56% 29.71 in 10.0 mi WSW 6.9 mph - N/A   Clear
1:56 AM 37.9 °F 35.5 °F 28.9 °F 70% 29.73 in 10.0 mi NE 3.5 mph - N/A   Clear
2:56 AM 39.9 °F 36.7 °F 30.0 °F 68% 29.72 in 10.0 mi East 4.6 mph - N/A   Clear
3:56 AM 36.0 °F 29.6 °F 28.9 °F 76% 29.71 in 10.0 mi NNE 8.1 mph - N/A   Scattered Clouds
4:56 AM 35.1 °F 27.9 °F 27.0 °F 72% 29.72 in 10.0 mi NE 9.2 mph - N/A   Clear
5:56 AM 37.0 °F - 28.9 °F 73% 29.70 in 10.0 mi Calm Calm - N/A   Mostly Cloudy
6:56 AM 37.0 °F 32.4 °F 28.9 °F 73% 29.72 in 10.0 mi ESE 5.8 mph - N/A   Mostly Cloudy
7:56 AM 41.0 °F 39.0 °F 32.0 °F 70% 29.72 in 10.0 mi ENE 3.5 mph - N/A   Mostly Cloudy
8:56 AM 46.9 °F - 35.1 °F 63% 29.70 in 10.0 mi ESE 5.8 mph - N/A   Scattered Clouds
9:56 AM 50.0 °F - 36.0 °F 59% 29.71 in 10.0 mi WSW 10.4 mph - N/A   Overcast
10:56 AM 48.0 °F - 37.9 °F 68% 29.72 in 10.0 mi NE 10.4 mph - 0.00 in   Overcast
11:56 AM 46.9 °F - 41.0 °F 80% 29.73 in 10.0 mi ENE 5.8 mph - 0.00 in Rain Light Rain
12:56 PM 46.0 °F 41.9 °F 41.0 °F 83% 29.75 in 4.0 mi NE 8.1 mph - 0.02 in Rain Light Rain
1:05 PM 45.0 °F 41.2 °F 41.0 °F 86% 29.76 in 2.0 mi NE 6.9 mph - 0.04 in Rain Rain
1:16 PM 45.0 °F - 41.0 °F 86% 29.76 in 7.0 mi Calm Calm - 0.05 in Rain Light Rain
1:56 PM 45.0 °F 42.6 °F 42.1 °F 90% 29.79 in 10.0 mi NE 4.6 mph - 0.06 in   Overcast
1:58 PM 45.0 °F 42.6 °F 42.1 °F 90% 29.78 in 10.0 mi NE 4.6 mph - N/A   Overcast
2:56 PM 46.0 °F 43.9 °F 41.0 °F 83% 29.81 in 10.0 mi West 4.6 mph - 0.01 in   Overcast
3:06 PM 45.0 °F 42.6 °F 41.0 °F 86% 29.80 in 9.0 mi WNW 4.6 mph - 0.00 in Rain Light Rain
3:14 PM 45.0 °F 41.8 °F 41.0 °F 86% 29.80 in 8.0 mi WNW 5.8 mph - 0.00 in Rain Light Rain
3:27 PM 45.0 °F 41.8 °F 42.1 °F 90% 29.81 in 10.0 mi WNW 5.8 mph - 0.00 in   Overcast
3:56 PM 45.0 °F 42.6 °F 41.0 °F 86% 29.83 in 10.0 mi NW 4.6 mph - 0.00 in   Overcast
4:56 PM 43.0 °F 39.5 °F 37.0 °F 80% 29.86 in 10.0 mi NNW 5.8 mph - N/A   Overcast
5:56 PM 42.1 °F 40.2 °F 37.0 °F 82% 29.89 in 10.0 mi NNW 3.5 mph - N/A   Mostly Cloudy
6:56 PM 37.9 °F - 35.1 °F 89% 29.91 in 10.0 mi Calm Calm - N/A   Overcast
7:56 PM 41.0 °F - 36.0 °F 82% 29.92 in 10.0 mi Calm Calm - N/A   Overcast
8:56 PM 41.0 °F 38.0 °F 36.0 °F 82% 29.93 in 10.0 mi NW 4.6 mph - N/A   Overcast
9:56 PM 39.0 °F 34.8 °F 34.0 °F 82% 29.93 in 10.0 mi WNW 5.8 mph - N/A   Partly Cloudy
10:56 PM 39.9 °F 33.4 °F 35.1 °F 83% 29.94 in 10.0 mi NW 10.4 mph - N/A   Overcast
11:56 PM 39.9 °F 33.9 °F 35.1 °F 83% 29.97 in 10.0 mi NNW 9.2 mph - N/A   Overcast